Tracking 30995 objects as of 5-Jul-2025
HD Live streaming from Space Station
objects crossing your sky now

FREGAT DEB

Track FREGAT DEB now!
10-day predictions


NORAD ID: 46411
Int'l Code: 2011-037LQ
Perigee: 483.7 km
Apogee: 3,035.9 km
Inclination: 51.5 °
Period: 121.6 minutes
Semi major axis: 8130 km
RCS: Unknown
Launch date: July 18, 2011
Source: Commonwealth of Independent States (former USSR) (CIS)
Launch site: TYURATAM MISSILE AND SPACE COMPLEX (TTMTR)

Note: This is SATELLITE DEBRIS
Your satellite tracking list
IRIDIUM 122
Track 1 satellite(s)




NASA's NSSDC Master Catalog

Two Line Element Set (TLE):
1 46411U 11037LS  25185.33874463  .00005523  00000-0  16781-2 0  9997
2 46411  51.4776 165.9300 1569486 128.6303 246.5841 11.84143211208190
Source of the keplerian elements: AFSPC